FW6635 Weather Reports


time (UTC)temp
F
wind
direction
speed
knots
gust
knots
rain 1hr
in
rain 24hr
in
rain mn
in
humidity
%
barometer
mb
20260509043056 62 0 0.0 2.6 0.00 0.00 0.00 87 1016.7
20260509041551 61 0 0.0 0.0 0.00 0.00 0.00 87 1016.7
20260509040112 62 0 0.0 0.0 0.00 0.00 0.00 86 1016.8
20260509034604 62 0 0.0 1.7 0.00 0.00 0.00 85 1016.8
20260509033051 63 0 0.0 2.6 0.00 0.00 0.00 83 1016.8
20260509031553 63 0 0.0 5.2 0.00 0.00 0.00 83 1016.6
20260509024554 63 0 1.7 3.5 0.00 0.00 0.00 82 1017.1
20260509023051 64 151 0.9 7.0 0.00 0.00 0.00 82 1017.0
20260509021550 64 166 2.6 6.1 0.00 0.00 0.00 81 1016.9
20260509020052 63 115 2.6 6.1 0.00 0.00 0.00 84 1016.8
20260509014553 62 0 0.0 0.0 0.00 0.00 0.00 89 1017.1
20260509013108 62 0 0.0 0.0 0.00 0.00 0.00 88 1016.8
20260509011600 62 0 0.0 0.0 0.00 0.00 0.00 89 1016.7
20260509010050 63 0 0.0 0.0 0.00 0.00 0.00 88 1016.3
20260509004553 63 0 0.0 0.0 0.00 0.00 0.00 87 1016.3
20260509003111 63 0 0.0 0.0 0.00 0.00 0.00 87 1016.3
20260509001552 64 0 0.0 0.9 0.00 0.00 0.00 84 1016.0
20260509000107 65 0 0.0 0.0 0.00 0.00 0.00 83 1015.9
20260508234546 65 0 0.0 0.0 0.00 0.00 0.00 83 1015.9
20260508233054 66 0 0.0 0.9 0.00 0.00 0.00 81 1015.7
20260508231554 67 0 0.0 0.9 0.00 0.00 0.00 80 1015.5
20260508230053 68 0 0.0 0.0 0.00 0.00 0.00 74 1015.6
20260508224557 69 0 0.0 0.0 0.00 0.01 0.00 73 1015.9
20260508223045 70 111 0.9 3.5 0.00 0.01 0.00 63 1015.9
20260508221552 71 167 1.7 4.3 0.00 0.01 0.00 61 1016.1
20260508220048 71 166 1.7 4.3 0.00 0.01 0.00 60 1016.2
20260508214554 71 59 0.9 5.2 0.00 0.02 0.00 61 1016.0
20260508213045 71 200 0.0 3.5 0.00 0.02 0.00 57 1016.0
20260508211549 71 219 0.9 6.1 0.00 0.02 0.00 58 1015.9
20260508210052 72 194 2.6 5.2 0.00 0.02 0.00 58 1015.9
20260508204550 72 138 1.7 5.2 0.00 0.04 0.00 54 1016.3
20260508203052 74 235 1.7 6.1 0.00 0.04 0.00 58 1016.5
20260508201550 74 188 1.7 5.2 0.00 0.04 0.00 56 1016.3
20260508200059 73 194 2.6 7.8 0.00 0.04 0.00 52 1016.4
20260508194550 73 163 2.6 6.1 0.00 0.07 0.00 53 1016.3
20260508193100 72 140 2.6 5.2 0.00 0.07 0.00 56 1016.7
20260508191549 72 74 3.5 7.8 0.00 0.07 0.00 55 1016.7
20260508190049 74 32 0.9 3.5 0.00 0.07 0.00 54 1017.3
20260508184602 73 98 2.6 7.0 0.00 0.13 0.00 54 1017.3
20260508183101 72 204 2.6 4.3 0.00 0.13 0.00 57 1017.7
20260508181551 72 0 0.0 7.0 0.00 0.13 0.00 57 1017.8
20260508180051 71 155 2.6 7.0 0.00 0.13 0.00 56 1017.8
20260508174602 71 160 1.7 5.2 0.00 0.20 0.00 56 1017.8
20260508173050 71 305 0.9 8.7 0.00 0.20 0.00 57 1018.4
20260508171546 71 167 1.7 7.8 0.00 0.20 0.00 57 1018.3
20260508170053 70 31 0.9 9.6 0.00 0.20 0.00 54 1018.4
20260508164550 71 135 1.7 7.8 0.00 0.30 0.00 55 1018.7
20260508163113 71 80 5.2 7.8 0.00 0.30 0.00 56 1018.8
20260508161550 70 73 3.5 8.7 0.00 0.30 0.00 56 1018.8
20260508160047 70 170 3.5 10.4 0.00 0.30 0.00 55 1018.8
20260508154554 70 147 4.3 8.7 0.00 0.33 0.00 56 1019.1
20260508153054 70 150 4.3 8.7 0.00 0.33 0.00 58 1019.5
20260508151546 70 96 6.1 11.3 0.00 0.33 0.00 55 1019.6
20260508150052 68 124 6.1 10.4 0.00 0.33 0.00 57 1019.8
20260508144549 67 90 7.0 11.3 0.00 0.52 0.00 61 1019.7
20260508143051 67 64 5.2 11.3 0.00 0.52 0.00 63 1019.7
20260508141547 68 90 4.3 7.8 0.00 0.52 0.00 63 1019.9
20260508140048 67 81 7.0 11.3 0.00 0.52 0.00 67 1019.8
20260508134546 65 42 7.0 9.6 0.00 0.55 0.00 68 1019.8
20260508133050 64 84 4.3 12.2 0.00 0.55 0.00 74 1019.4
20260508131555 63 90 2.6 9.6 0.00 0.55 0.00 76 1019.4
20260508130058 62 107 3.5 11.3 0.00 0.55 0.00 82 1018.8
20260508124549 61 55 2.6 8.7 0.00 0.55 0.00 86 1018.8
20260508123052 59 90 2.6 7.8 0.00 0.55 0.00 89 1018.7
20260508121550 59 55 2.6 7.8 0.00 0.55 0.00 89 1018.5
20260508120057 58 74 2.6 6.1 0.00 0.55 0.00 90 1018.3
20260508114549 58 0 0.9 2.6 0.00 0.58 0.00 91 1018.0
20260508113054 57 0 1.7 3.5 0.00 0.58 0.00 92 1017.6
20260508111555 56 0 0.9 3.5 0.00 0.58 0.00 93 1017.5
20260508110106 56 5 0.0 2.6 0.00 0.58 0.00 92 1017.1
20260508104550 56 0 0.0 2.6 0.00 0.58 0.00 92 1017.1
20260508103057 56 32 0.0 2.6 0.00 0.58 0.00 92 1016.9
20260508101555 56 42 0.0 3.5 0.00 0.58 0.00 92 1016.6
20260508100054 56 0 0.0 0.0 0.00 0.58 0.00 91 1016.4
20260508094555 56 0 0.0 2.6 0.00 0.71 0.00 91 1016.2
20260508093058 57 0 0.9 2.6 0.00 0.71 0.00 90 1016.1
20260508091551 57 47 0.9 2.6 0.00 0.71 0.00 89 1015.9
20260508090104 57 0 0.0 0.0 0.00 0.71 0.00 89 1015.9
20260508084548 57 0 0.0 4.3 0.00 0.86 0.00 88 1015.8
20260508083045 57 49 0.0 3.5 0.00 0.86 0.00 89 1016.0
20260508081548 57 0 0.0 0.0 0.00 0.86 0.00 89 1015.9
20260508080056 57 0 0.0 0.0 0.00 0.86 0.00 90 1015.8
20260508074545 58 0 0.0 0.0 0.00 0.88 0.00 88 1015.7
20260508073049 59 0 0.0 1.7 0.00 0.88 0.00 87 1015.7
20260508071549 59 51 1.7 3.5 0.00 0.88 0.00 87 1015.6
20260508070054 60 55 0.9 3.5 0.00 0.88 0.00 86 1015.5
20260508064553 60 0 0.0 3.5 0.00 0.88 0.00 85 1015.3
20260508063053 60 24 0.0 3.5 0.00 0.88 0.00 85 1015.5
20260508061605 60 0 0.0 1.7 0.00 0.88 0.00 87 1015.5
20260508060052 60 0 0.0 0.0 0.00 0.88 0.00 88 1015.5
20260508054623 60 0 0.0 0.0 0.00 0.88 0.00 89 1015.5
20260508053049 59 0 0.0 0.0 0.00 0.88 0.00 93 1015.3
20260508051550 60 0 0.0 0.0 0.00 0.88 0.00 93 1015.2
20260508050055 60 0 0.0 0.0 0.00 0.88 0.00 92 1015.2
20260508044557 61 0 0.0 0.0 0.00 0.88 0.00 90 1015.4